EW7351 Weather Reports


Display with metric or nautical units.
time (UTC)temp
F
wind
direction
speed
MPH
gust
MPH
rain 1hr
in
rain 24hr
in
rain mn
in
humidity
%
barometer
mb
20210625071109 82 148 1.0 7.0 0.00 0.00 0.00 82 1011.1
20210625070600 82 143 1.0 5.0 0.00 0.00 0.00 82 1011.1
20210625070059 83 146 1.0 5.0 0.00 0.00 0.00 82 1011.1
20210625065553 83 122 0.0 4.0 0.00 0.00 0.00 81 1011.1
20210625065043 83 162 0.0 4.0 0.00 0.00 0.00 81 1011.2
20210625064542 83 139 0.0 7.0 0.00 0.00 0.00 81 1011.1
20210625064037 83 151 1.0 7.0 0.00 0.00 0.00 81 1011.0
20210625063533 83 126 1.0 6.0 0.00 0.00 0.00 81 1011.0
20210625063024 83 210 1.0 6.0 0.00 0.00 0.00 81 1011.1
20210625062516 83 79 1.0 4.0 0.00 0.00 0.00 80 1011.1
20210625062005 83 115 1.0 7.0 0.00 0.00 0.00 80 1011.1
20210625061455 83 140 1.0 7.0 0.00 0.00 0.00 80 1011.1
20210625060949 83 141 1.0 6.0 0.00 0.00 0.00 80 1011.1
20210625060444 83 331 0.0 6.0 0.00 0.00 0.00 80 1011.0
20210625055934 84 184 0.0 2.0 0.00 0.00 0.00 80 1011.1
20210625055423 84 124 0.0 4.0 0.00 0.00 0.00 80 1011.2
20210625054916 84 133 1.0 7.0 0.00 0.00 0.00 80 1011.1
20210625054404 84 138 0.0 7.0 0.00 0.00 0.00 80 1011.1
20210625053854 84 233 0.0 7.0 0.00 0.00 0.00 80 1011.0
20210625053343 84 152 1.0 7.0 0.00 0.00 0.00 80 1011.0
20210625052833 84 110 1.0 7.0 0.00 0.00 0.00 79 1011.0
20210625052323 84 128 0.0 5.0 0.00 0.00 0.00 79 1010.9
20210625051813 84 136 0.0 3.0 0.00 0.00 0.00 79 1010.8
20210625051301 84 237 0.0 3.0 0.00 0.00 0.00 79 1010.7
20210625050751 84 82 0.0 5.0 0.00 0.00 0.00 79 1010.6
20210625050241 84 152 0.0 5.0 0.00 0.00 0.00 80 1010.5
20210625045718 84 165 1.0 6.0 0.00 0.00 0.00 79 1010.4
20210625045208 84 198 1.0 6.0 0.00 0.00 0.00 79 1010.3
20210625044658 84 146 1.0 4.0 0.00 0.00 0.00 78 1010.3
20210625044149 85 203 1.0 5.0 0.00 0.00 0.00 78 1010.2
20210625043637 85 150 0.0 5.0 0.00 0.00 0.00 78 1010.2
20210625043136 85 93 1.0 4.0 0.00 0.00 0.00 78 1010.1
20210625042639 85 155 0.0 4.0 0.00 0.00 0.00 78 1010.1
20210625042129 85 206 1.0 6.0 0.00 0.00 0.00 77 1010.1
20210625041619 85 201 1.0 6.0 0.00 0.00 0.00 77 1010.0
20210625041108 85 58 1.0 6.0 0.00 0.00 0.00 77 1010.0
20210625040559 85 99 1.0 6.0 0.00 0.00 0.00 76 1010.0
20210625040046 85 195 1.0 6.0 0.00 0.00 0.00 76 1010.0
20210625035530 85 110 1.0 6.0 0.00 0.00 0.00 76 1010.1
20210625035023 85 217 0.0 5.0 0.00 0.00 0.00 75 1010.2
20210625034525 85 180 0.0 5.0 0.00 0.00 0.00 75 1010.2
20210625034015 85 191 1.0 5.0 0.00 0.00 0.00 74 1010.1
20210625033505 86 127 1.0 7.0 0.00 0.00 0.00 74 1010.1
20210625032955 86 110 1.0 7.0 0.00 0.00 0.00 73 1010.0
20210625032446 86 151 1.0 5.0 0.00 0.00 0.00 73 1009.9
20210625031932 86 160 1.0 5.0 0.00 0.00 0.00 72 1009.8
20210625031426 86 134 0.0 5.0 0.00 0.00 0.00 72 1009.8
20210625030928 86 217 0.0 1.0 0.00 0.00 0.00 71 1009.8
20210625030406 86 140 0.0 4.0 0.00 0.00 0.00 71 1009.7
20210625025846 87 151 0.0 4.0 0.00 0.00 0.00 70 1009.7
20210625025336 87 84 0.0 4.0 0.00 0.00 0.00 70 1009.7
20210625024826 87 66 0.0 2.0 0.00 0.00 0.00 69 1009.8
20210625024314 87 143 0.0 2.0 0.00 0.00 0.00 69 1009.7
20210625023800 87 44 0.0 2.0 0.00 0.00 0.00 69 1009.7
20210625023250 87 132 0.0 2.0 0.00 0.00 0.00 68 1009.6
20210625022741 87 100 0.0 2.0 0.00 0.00 0.00 68 1009.6
20210625022230 88 119 0.0 1.0 0.00 0.00 0.00 68 1009.6
20210625021722 88 134 0.0 2.0 0.00 0.00 0.00 67 1009.6
20210625021206 88 166 0.0 2.0 0.00 0.00 0.00 67 1009.6
20210625020656 88 236 0.0 1.0 0.00 0.00 0.00 66 1009.5
20210625020147 89 195 0.0 2.0 0.00 0.00 0.00 66 1009.4
20210625015636 89 143 0.0 6.0 0.00 0.00 0.00 65 1009.5
20210625015126 89 159 0.0 4.0 0.00 0.00 0.00 65 1009.5
20210625014616 89 122 0.0 4.0 0.00 0.00 0.00 64 1009.5
20210625014105 90 156 0.0 4.0 0.00 0.00 0.00 63 1009.5
20210625013556 90 123 0.0 4.0 0.00 0.00 0.00 62 1009.6
20210625013046 91 134 0.0 4.0 0.00 0.00 0.00 61 1009.6
20210625012539 91 108 0.0 3.0 0.00 0.00 0.00 60 1009.6
20210625012028 92 123 1.0 8.0 0.00 0.00 0.00 59 1009.7
20210625011520 92 149 1.0 8.0 0.00 0.00 0.00 58 1009.7
20210625011003 93 58 0.0 1.0 0.00 0.00 0.00 56 1009.7
20210625010457 94 161 0.0 4.0 0.00 0.00 0.00 55 1009.6
20210625005946 94 150 0.0 4.0 0.00 0.00 0.00 55 1009.6
20210625005439 95 108 0.0 3.0 0.00 0.00 0.00 54 1009.5
20210625004929 95 132 0.0 3.0 0.00 0.00 0.00 54 1009.5
20210625004420 95 105 0.0 2.0 0.00 0.00 0.00 53 1009.5
20210625003910 96 193 1.0 5.0 0.00 0.00 0.00 53 1009.5
20210625003408 96 133 1.0 5.0 0.00 0.00 0.00 53 1009.5
20210625002906 96 134 0.0 3.0 0.00 0.00 0.00 52 1009.4
20210625002356 96 116 0.0 3.0 0.00 0.00 0.00 52 1009.4
20210625001852 96 229 0.0 7.0 0.00 0.00 0.00 51 1009.3
20210625001346 96 167 1.0 7.0 0.00 0.00 0.00 51 1009.3
20210625000845 97 156 1.0 5.0 0.00 0.00 0.00 51 1009.4
20210625000343 97 140 0.0 5.0 0.00 0.00 0.00 51 1009.4
20210624235838 97 217 0.0 5.0 0.00 0.00 0.00 51 1009.3
20210624235334 97 167 0.0 5.0 0.00 0.00 0.00 50 1009.4
20210624234831 97 131 1.0 5.0 0.00 0.00 0.00 50 1009.4
20210624234327 97 290 1.0 5.0 0.00 0.00 0.00 51 1009.3
20210624233821 97 97 0.0 2.0 0.00 0.00 0.00 50 1009.4
20210624233310 97 129 0.0 4.0 0.00 0.00 0.00 50 1009.5
20210624232759 96 159 0.0 6.0 0.00 0.00 0.00 50 1009.4
20210624232250 96 136 0.0 6.0 0.00 0.00 0.00 49 1009.4
20210624231747 97 77 1.0 5.0 0.00 0.00 0.00 49 1009.5
20210624231242 96 155 1.0 5.0 0.00 0.00 0.00 49 1009.6
20210624230737 96 113 1.0 8.0 0.00 0.00 0.00 50 1009.6
20210624230230 96 139 1.0 8.0 0.00 0.00 0.00 49 1009.7
20210624225723 97 280 1.0 6.0 0.00 0.00 0.00 49 1009.7
20210624225217 96 148 1.0 4.0 0.00 0.00 0.00 50 1009.8
20210624224704 96 130 1.0 4.0 0.00 0.00 0.00 50 1009.8
20210624224204 96 215 1.0 5.0 0.00 0.00 0.00 48 1009.9
20210624223657 97 214 1.0 5.0 0.00 0.00 0.00 49 1009.9
20210624223154 97 212 1.0 10.0 0.00 0.00 0.00 48 1010.0
20210624222648 97 198 1.0 10.0 0.00 0.00 0.00 48 1010.0
20210624222141 97 143 2.0 10.0 0.00 0.00 0.00 48 1010.0
20210624221628 97 56 2.0 10.0 0.00 0.00 0.00 47 1010.1
20210624221131 98 172 1.0 8.0 0.00 0.00 0.00 48 1010.1
20210624220620 98 207 1.0 5.0 0.00 0.00 0.00 49 1010.2
20210624220109 97 179 1.0 4.0 0.00 0.00 0.00 50 1010.3
20210624215603 97 127 1.0 4.0 0.00 0.00 0.00 49 1010.3
20210624215052 96 79 1.0 4.0 0.00 0.00 0.00 50 1010.3
20210624214539 96 102 1.0 6.0 0.00 0.00 0.00 52 1010.5
20210624214030 95 76 1.0 6.0 0.00 0.00 0.00 53 1010.6
20210624213518 95 142 1.0 6.0 0.00 0.00 0.00 51 1010.7
20210624213005 95 91 1.0 6.0 0.00 0.00 0.00 51 1010.6
20210624212512 96 188 1.0 7.0 0.00 0.00 0.00 51 1010.6
20210624211958 96 77 1.0 7.0 0.00 0.00 0.00 51 1010.7
20210624211447 96 179 1.0 6.0 0.00 0.00 0.00 49 1010.7
20210624210938 97 176 1.0 6.0 0.00 0.00 0.00 49 1010.8
20210624210428 97 72 1.0 6.0 0.00 0.00 0.00 50 1010.8
20210624205917 97 102 1.0 5.0 0.00 0.00 0.00 50 1010.8
20210624205409 97 174 1.0 6.0 0.00 0.00 0.00 50 1010.9
20210624204858 96 213 1.0 6.0 0.00 0.00 0.00 51 1011.0
20210624204345 96 159 1.0 8.0 0.00 0.00 0.00 52 1010.9
20210624203834 96 179 1.0 8.0 0.00 0.00 0.00 52 1011.0
20210624203325 96 111 0.0 4.0 0.00 0.00 0.00 51 1011.0
20210624202806 96 98 1.0 7.0 0.00 0.00 0.00 52 1011.1
20210624202258 96 202 0.0 7.0 0.00 0.00 0.00 52 1011.2
20210624201746 96 176 0.0 3.0 0.00 0.00 0.00 51 1011.3
20210624201232 96 119 1.0 4.0 0.00 0.00 0.00 52 1011.4
20210624200722 96 203 1.0 5.0 0.00 0.00 0.00 51 1011.4
20210624200214 96 185 1.0 5.0 0.00 0.00 0.00 51 1011.4
20210624195655 96 215 1.0 10.0 0.00 0.00 0.00 54 1011.5
20210624195143 95 232 1.0 10.0 0.00 0.00 0.00 53 1011.6
20210624194635 95 164 1.0 4.0 0.00 0.00 0.00 52 1011.7
20210624194124 96 118 1.0 7.0 0.00 0.00 0.00 52 1011.8
20210624193614 96 129 1.0 7.0 0.00 0.00 0.00 52 1011.8
20210624193101 96 336 1.0 5.0 0.00 0.00 0.00 53 1011.9
20210624192550 96 153 1.0 5.0 0.00 0.00 0.00 51 1011.9
20210624192054 96 139 1.0 5.0 0.00 0.00 0.00 53 1012.0
20210624191544 95 158 1.0 5.0 0.00 0.00 0.00 53 1012.0
20210624191033 95 124 0.0 5.0 0.00 0.00 0.00 54 1012.2
20210624190524 95 34 1.0 7.0 0.00 0.00 0.00 54 1012.2
20210624190014 95 161 1.0 7.0 0.00 0.00 0.00 55 1012.2
20210624185503 95 226 1.0 8.0 0.00 0.00 0.00 54 1012.2
20210624184954 95 204 1.0 8.0 0.00 0.00 0.00 57 1012.3
20210624184440 95 97 1.0 5.0 0.00 0.00 0.00 55 1012.3
20210624183930 95 215 1.0 4.0 0.00 0.00 0.00 55 1012.3
20210624183420 95 171 0.0 4.0 0.00 0.00 0.00 56 1012.3
20210624182910 94 219 1.0 4.0 0.00 0.00 0.00 56 1012.4
20210624182400 94 206 1.0 6.0 0.00 0.00 0.00 55 1012.4
20210624181846 94 224 1.0 6.0 0.00 0.00 0.00 57 1012.4
20210624181325 94 193 1.0 5.0 0.00 0.00 0.00 56 1012.4
20210624180823 94 203 1.0 3.0 0.00 0.00 0.00 56 1012.5
20210624180313 94 152 1.0 5.0 0.00 0.00 0.00 57 1012.5
20210624175804 94 246 1.0 5.0 0.00 0.00 0.00 56 1012.6
20210624175254 94 162 1.0 5.0 0.00 0.00 0.00 56 1012.6
20210624174744 93 172 1.0 5.0 0.00 0.00 0.00 57 1012.8
20210624174230 93 158 1.0 5.0 0.00 0.00 0.00 57 1012.8
20210624173721 93 26 1.0 5.0 0.00 0.00 0.00 57 1012.8
20210624173209 92 136 0.0 4.0 0.00 0.00 0.00 58 1012.9
20210624172700 92 193 1.0 3.0 0.00 0.00 0.00 60 1012.9
20210624172149 92 223 1.0 5.0 0.00 0.00 0.00 59 1012.9
20210624171632 91 230 1.0 7.0 0.00 0.00 0.00 60 1012.8
20210624171122 91 129 1.0 7.0 0.00 0.00 0.00 59 1012.9
20210624170608 91 175 1.0 4.0 0.00 0.00 0.00 61 1012.9
20210624170106 91 144 1.0 3.0 0.00 0.00 0.00 61 1013.0
20210624165556 91 186 1.0 4.0 0.00 0.00 0.00 63 1013.1
20210624165045 91 113 1.0 4.0 0.00 0.00 0.00 61 1013.1
20210624164536 90 117 0.0 4.0 0.00 0.00 0.00 63 1013.2
20210624164022 90 117 1.0 4.0 0.00 0.00 0.00 64 1013.3
20210624163511 90 150 0.0 4.0 0.00 0.00 0.00 63 1013.1
20210624162949 89 136 0.0 3.0 0.00 0.00 0.00 65 1013.2
20210624162441 89 224 1.0 6.0 0.00 0.00 0.00 64 1013.2
20210624161920 89 210 1.0 6.0 0.00 0.00 0.00 64 1013.2
20210624161411 89 174 1.0 6.0 0.00 0.00 0.00 65 1013.3
20210624160859 88 150 1.0 6.0 0.00 0.00 0.00 66 1013.2
20210624160348 88 164 1.0 5.0 0.00 0.00 0.00 66 1013.3
20210624155841 87 126 1.0 5.0 0.00 0.00 0.00 68 1013.3
20210624155325 87 174 1.0 4.0 0.00 0.00 0.00 68 1013.4
20210624154817 87 136 0.0 4.0 0.00 0.00 0.00 68 1013.3
20210624154307 87 224 0.0 2.0 0.00 0.00 0.00 68 1013.4
20210624153752 87 130 0.0 2.0 0.00 0.00 0.00 69 1013.4
20210624153249 87 176 0.0 3.0 0.00 0.00 0.00 69 1013.4
20210624152751 86 210 1.0 5.0 0.00 0.00 0.00 69 1013.3
20210624152225 87 234 1.0 6.0 0.00 0.00 0.00 68 1013.4
20210624151729 86 148 1.0 6.0 0.00 0.00 0.00 68 1013.4
20210624151217 87 230 1.0 6.0 0.00 0.00 0.00 68 1013.3
20210624150707 87 212 1.0 6.0 0.00 0.00 0.00 67 1013.5
20210624150158 87 172 0.0 4.0 0.00 0.00 0.00 68 1013.6
20210624145651 87 213 0.0 2.0 0.00 0.00 0.00 69 1013.6
20210624145139 86 146 0.0 3.0 0.00 0.00 0.00 68 1013.7
20210624144630 86 191 0.0 3.0 0.00 0.00 0.00 69 1013.6
20210624144121 86 213 0.0 3.0 0.00 0.00 0.00 71 1013.6
20210624143606 85 196 1.0 4.0 0.00 0.00 0.00 70 1013.6
20210624143053 85 154 1.0 5.0 0.00 0.00 0.00 72 1013.6
20210624142548 85 170 1.0 5.0 0.00 0.00 0.00 72 1013.6
20210624142033 85 172 0.0 2.0 0.00 0.00 0.00 72 1013.6
20210624141517 84 192 0.0 7.0 0.00 0.00 0.00 73 1013.6
20210624141007 84 172 1.0 7.0 0.00 0.00 0.00 73 1013.7
20210624140459 84 203 0.0 5.0 0.00 0.00 0.00 73 1013.6
20210624135953 83 138 0.0 2.0 0.00 0.00 0.00 74 1013.6
20210624135441 83 141 0.0 2.0 0.00 0.00 0.00 73 1013.6
20210624134931 83 332 0.0 6.0 0.00 0.00 0.00 74 1013.5
20210624134425 83 172 0.0 6.0 0.00 0.00 0.00 74 1013.6
20210624133921 83 144 0.0 3.0 0.00 0.00 0.00 75 1013.6
20210624133418 82 143 0.0 3.0 0.00 0.00 0.00 75 1013.6
20210624132911 82 158 0.0 3.0 0.00 0.00 0.00 76 1013.5
20210624132405 82 136 0.0 4.0 0.00 0.00 0.00 76 1013.5
20210624131902 82 226 0.0 4.0 0.00 0.00 0.00 76 1013.5
20210624131359 82 100 0.0 3.0 0.00 0.00 0.00 76 1013.4
20210624130859 82 259 0.0 4.0 0.00 0.00 0.00 77 1013.5
20210624130347 81 109 0.0 5.0 0.00 0.00 0.00 77 1013.5
20210624125841 81 131 0.0 5.0 0.00 0.00 0.00 77 1013.4
20210624125335 81 285 0.0 4.0 0.00 0.00 0.00 77 1013.4
20210624124827 81 155 0.0 3.0 0.00 0.00 0.00 77 1013.5
20210624124327 81 240 0.0 3.0 0.00 0.00 0.00 77 1013.5
20210624123823 80 153 0.0 2.0 0.00 0.00 0.00 78 1013.4
20210624123325 80 355 0.0 2.0 0.00 0.00 0.00 78 1013.4
20210624122821 80 154 0.0 2.0 0.00 0.00 0.00 78 1013.5
20210624122315 80 142 0.0 1.0 0.00 0.00 0.00 79 1013.4
20210624121809 80 99 0.0 5.0 0.00 0.00 0.00 79 1013.3
20210624121305 79 124 0.0 5.0 0.00 0.00 0.00 80 1013.2
20210624120801 79 79 1.0 5.0 0.00 0.00 0.00 81 1013.2
20210624120302 78 150 0.0 5.0 0.00 0.00 0.00 82 1013.2
20210624115801 78 168 0.0 3.0 0.00 0.00 0.00 83 1013.2
20210624115301 77 211 0.0 3.0 0.00 0.00 0.00 84 1013.1
20210624114757 77 143 0.0 3.0 0.00 0.00 0.00 84 1013.1
20210624114258 77 223 0.0 3.0 0.00 0.00 0.00 84 1013.1
20210624113738 77 154 0.0 3.0 0.00 0.00 0.00 84 1013.0
20210624113230 77 122 0.0 2.0 0.00 0.00 0.00 85 1013.0
20210624112726 77 176 0.0 2.0 0.00 0.00 0.00 85 1013.0
20210624112222 78 346 0.0 3.0 0.00 0.00 0.00 85 1012.8
20210624111716 78 117 0.0 3.0 0.00 0.00 0.00 85 1012.8
20210624111206 78 191 0.0 1.0 0.00 0.00 0.00 85 1012.8
20210624110705 78 160 0.0 1.0 0.00 0.00 0.00 85 1012.8
20210624110157 78 150 0.0 2.0 0.00 0.00 0.00 85 1012.7
20210624105650 78 122 0.0 2.0 0.00 0.00 0.00 85 1012.8
20210624105137 78 113 0.0 2.0 0.00 0.00 0.00 85 1012.8
20210624104628 78 131 0.0 2.0 0.00 0.00 0.00 85 1012.7
20210624104121 78 243 0.0 2.0 0.00 0.00 0.00 85 1012.6
20210624103609 78 129 0.0 2.0 0.00 0.00 0.00 85 1012.5
20210624103058 78 58 0.0 2.0 0.00 0.00 0.00 85 1012.4
20210624102547 79 217 0.0 2.0 0.00 0.00 0.00 85 1012.4
20210624102037 79 133 0.0 2.0 0.00 0.00 0.00 85 1012.3
20210624101527 79 158 0.0 2.0 0.00 0.00 0.00 85 1012.3
20210624101017 79 109 0.0 1.0 0.00 0.00 0.00 85 1012.3
20210624100508 79 137 0.0 1.0 0.00 0.00 0.00 85 1012.3
20210624095956 79 158 0.0 2.0 0.00 0.00 0.00 85 1012.3
20210624095448 79 203 0.0 2.0 0.00 0.00 0.00 85 1012.3
20210624094938 79 113 0.0 4.0 0.00 0.00 0.00 85 1012.3
20210624094427 79 92 0.0 4.0 0.00 0.00 0.00 85 1012.2
20210624093916 79 139 0.0 4.0 0.00 0.00 0.00 85 1012.1
20210624093407 79 245 0.0 4.0 0.00 0.00 0.00 86 1012.1
20210624092854 80 188 0.0 5.0 0.00 0.00 0.00 86 1012.0
20210624092345 80 99 0.0 5.0 0.00 0.00 0.00 86 1012.0
20210624091847 80 152 0.0 0.0 0.00 0.00 0.00 86 1011.9
20210624091337 80 149 0.0 6.0 0.00 0.00 0.00 86 1011.9
20210624090827 80 101 0.0 6.0 0.00 0.00 0.00 86 1011.9
20210624090318 80 118 0.0 5.0 0.00 0.00 0.00 87 1011.9
20210624085806 80 167 0.0 4.0 0.00 0.00 0.00 87 1011.9
20210624085257 80 165 0.0 2.0 0.00 0.00 0.00 87 1011.9
20210624084747 80 102 0.0 6.0 0.00 0.00 0.00 87 1011.8
20210624084229 80 53 0.0 2.0 0.00 0.00 0.00 87 1011.8
20210624083713 80 144 0.0 2.0 0.00 0.00 0.00 87 1011.9
20210624083201 80 158 0.0 3.0 0.00 0.00 0.00 87 1011.8
20210624082651 81 165 0.0 3.0 0.00 0.00 0.00 87 1011.8
20210624082138 81 326 0.0 3.0 0.00 0.00 0.00 87 1011.7
20210624081631 81 181 0.0 3.0 0.00 0.00 0.00 87 1011.7
20210624081120 81 113 0.0 3.0 0.00 0.00 0.00 87 1011.6
20210624080622 81 138 0.0 2.0 0.00 0.00 0.00 87 1011.6
20210624080112 81 149 0.0 2.0 0.00 0.00 0.00 86 1011.6
20210624075602 81 205 0.0 2.0 0.00 0.00 0.00 86 1011.6
20210624075051 81 99 0.0 2.0 0.00 0.00 0.00 86 1011.5
20210624074540 81 102 0.0 2.0 0.00 0.00 0.00 86 1011.5
20210624074029 81 105 0.0 2.0 0.00 0.00 0.00 86 1011.5
20210624073520 81 106 0.0 4.0 0.00 0.00 0.00 86 1011.4
20210624073009 81 133 0.0 4.0 0.00 0.00 0.00 86 1011.4
20210624072500 81 94 0.0 3.0 0.00 0.00 0.00 86 1011.4
20210624071949 81 153 0.0 3.0 0.00 0.00 0.00 86 1011.4